Time,TemperatureF,DewpointF,PressureIn,WindDirection,WindDirectionDegrees,WindSpeedMPH,WindSpeedGustMPH,Humidity,HourlyPrecipIn,Conditions,Clouds,dailyrainin,SoftwareType,DateUTC
2013-08-21 00:12:00,70.1,68.0,30.16,NNW,347,0.0,0.0,94,0.00,,,0.00,weatherlink.com 1.10,2013-08-21 04:12:00,
2013-08-21 00:27:00,69.9,68.0,30.16,NNW,347,0.0,0.0,94,0.00,,,0.00,weatherlink.com 1.10,2013-08-21 04:27:00,
2013-08-21 00:42:00,70.0,68.0,30.17,NNW,347,0.0,0.0,94,0.00,,,0.00,weatherlink.com 1.10,2013-08-21 04:42:00,
2013-08-21 00:57:00,70.5,69.0,30.16,NNW,347,0.0,0.0,94,0.00,,,0.00,weatherlink.com 1.10,2013-08-21 04:57:00,
2013-08-21 01:12:00,70.4,69.0,30.16,NNW,347,0.0,0.0,94,0.00,,,0.00,weatherlink.com 1.10,2013-08-21 05:12:00,
2013-08-21 01:27:00,70.6,69.0,30.16,NNW,347,0.0,0.0,94,0.00,,,0.00,weatherlink.com 1.10,2013-08-21 05:27:00,
2013-08-21 01:42:00,70.6,69.0,30.15,NNW,347,0.0,0.0,94,0.00,,,0.00,weatherlink.com 1.10,2013-08-21 05:42:00,
2013-08-21 01:57:00,70.6,69.0,30.15,NNW,347,0.0,0.0,94,0.00,,,0.00,weatherlink.com 1.10,2013-08-21 05:57:00,
2013-08-21 02:12:00,70.8,69.0,30.15,NNW,347,0.0,0.0,94,0.00,,,0.00,weatherlink.com 1.10,2013-08-21 06:12:00,
2013-08-21 02:27:00,70.8,69.0,30.14,NNW,347,0.0,0.0,94,0.00,,,0.00,weatherlink.com 1.10,2013-08-21 06:27:00,
2013-08-21 02:42:00,70.9,69.0,30.14,NNW,347,0.0,0.0,94,0.00,,,0.00,weatherlink.com 1.10,2013-08-21 06:42:00,
2013-08-21 02:57:00,70.9,69.0,30.15,NNW,347,1.0,2.0,94,0.00,,,0.00,weatherlink.com 1.10,2013-08-21 06:57:00,
2013-08-21 03:12:00,71.0,69.0,30.14,SW,234,1.0,3.0,94,0.00,,,0.00,weatherlink.com 1.10,2013-08-21 07:12:00,
2013-08-21 03:27:00,70.9,69.0,30.15,SW,234,1.0,2.0,94,0.02,,,0.02,weatherlink.com 1.10,2013-08-21 07:27:00,
2013-08-21 03:42:00,70.6,69.0,30.14,NNE,33,2.0,4.0,94,0.33,,,0.33,weatherlink.com 1.10,2013-08-21 07:42:00,
2013-08-21 03:57:00,70.5,69.0,30.14,NNE,14,0.0,2.0,94,0.34,,,0.34,weatherlink.com 1.10,2013-08-21 07:57:00,
2013-08-21 04:12:00,70.5,69.0,30.13,NNE,14,0.0,1.0,94,0.35,,,0.35,weatherlink.com 1.10,2013-08-21 08:12:00,
2013-08-21 04:27:00,70.4,69.0,30.13,NNE,14,0.0,2.0,94,0.34,,,0.37,weatherlink.com 1.10,2013-08-21 08:27:00,
2013-08-21 04:42:00,70.3,69.0,30.13,NNE,14,0.0,0.0,94,0.04,,,0.37,weatherlink.com 1.10,2013-08-21 08:42:00,
2013-08-21 04:57:00,70.2,69.0,30.13,NNE,14,0.0,0.0,94,0.03,,,0.37,weatherlink.com 1.10,2013-08-21 08:57:00,
2013-08-21 05:12:00,70.2,69.0,30.14,NNE,14,0.0,0.0,94,0.02,,,0.37,weatherlink.com 1.10,2013-08-21 09:12:00,
2013-08-21 05:28:00,70.0,68.0,30.14,NNE,14,0.0,0.0,94,0.00,,,0.37,weatherlink.com 1.10,2013-08-21 09:28:00,
2013-08-21 05:42:00,69.8,68.0,30.14,NNE,14,1.0,1.0,94,0.00,,,0.37,weatherlink.com 1.10,2013-08-21 09:42:00,
2013-08-21 05:57:00,70.0,68.0,30.15,North,355,0.0,2.0,94,0.00,,,0.37,weatherlink.com 1.10,2013-08-21 09:57:00,
2013-08-21 06:12:00,70.0,68.0,30.15,North,355,1.0,1.0,94,0.00,,,0.37,weatherlink.com 1.10,2013-08-21 10:12:00,
2013-08-21 06:27:00,70.0,68.0,30.16,North,355,0.0,1.0,94,0.00,,,0.37,weatherlink.com 1.10,2013-08-21 10:27:00,
2013-08-21 06:42:00,69.9,68.0,30.16,North,355,1.0,1.0,94,0.00,,,0.37,weatherlink.com 1.10,2013-08-21 10:42:00,
2013-08-21 06:57:00,69.8,68.0,30.16,North,355,1.0,3.0,94,0.00,,,0.37,weatherlink.com 1.10,2013-08-21 10:57:00,
2013-08-21 07:12:00,69.8,68.0,30.16,NNE,24,2.0,4.0,94,0.00,,,0.37,weatherlink.com 1.10,2013-08-21 11:12:00,
2013-08-21 07:27:00,70.0,68.0,30.16,East,79,1.0,3.0,94,0.00,,,0.37,weatherlink.com 1.10,2013-08-21 11:27:00,
2013-08-21 07:43:00,70.5,69.0,30.17,East,79,0.0,1.0,94,0.02,,,0.39,weatherlink.com 1.10,2013-08-21 11:43:00,
2013-08-21 07:58:00,70.7,69.0,30.17,East,79,1.0,2.0,94,0.02,,,0.39,weatherlink.com 1.10,2013-08-21 11:58:00,
2013-08-21 08:13:00,70.8,69.0,30.17,East,79,0.0,5.0,94,0.02,,,0.39,weatherlink.com 1.10,2013-08-21 12:13:00,
2013-08-21 08:28:00,71.4,70.0,30.17,ENE,71,1.0,3.0,94,0.02,,,0.39,weatherlink.com 1.10,2013-08-21 12:28:00,
2013-08-21 08:43:00,71.9,71.0,30.18,NE,53,3.0,3.0,95,0.00,,,0.39,weatherlink.com 1.10,2013-08-21 12:43:00,
2013-08-21 08:58:00,72.5,71.0,30.19,NE,50,0.0,2.0,95,0.00,,,0.39,weatherlink.com 1.10,2013-08-21 12:58:00,
2013-08-21 09:13:00,72.9,72.0,30.19,NE,34,0.0,3.0,96,0.00,,,0.39,weatherlink.com 1.10,2013-08-21 13:13:00,
2013-08-21 09:28:00,73.4,72.0,30.19,NNE,32,2.0,3.0,96,0.00,,,0.39,weatherlink.com 1.10,2013-08-21 13:28:00,
2013-08-21 09:43:00,74.3,73.0,30.19,North,355,1.0,3.0,96,0.00,,,0.39,weatherlink.com 1.10,2013-08-21 13:43:00,
2013-08-21 09:58:00,74.8,74.0,30.20,ESE,115,1.0,2.0,96,0.00,,,0.39,weatherlink.com 1.10,2013-08-21 13:58:00,
2013-08-21 10:13:00,75.1,74.0,30.21,West,261,0.0,1.0,96,0.00,,,0.39,weatherlink.com 1.10,2013-08-21 14:13:00,
2013-08-21 10:28:00,74.8,74.0,30.21,West,261,0.0,1.0,96,0.00,,,0.39,weatherlink.com 1.10,2013-08-21 14:28:00,
2013-08-21 10:43:00,75.3,74.0,30.20,West,261,0.0,1.0,95,0.00,,,0.39,weatherlink.com 1.10,2013-08-21 14:43:00,
2013-08-21 10:58:00,75.1,74.0,30.21,West,261,0.0,1.0,96,0.00,,,0.39,weatherlink.com 1.10,2013-08-21 14:58:00,
2013-08-21 11:13:00,76.0,75.0,30.20,West,261,0.0,1.0,95,0.00,,,0.39,weatherlink.com 1.10,2013-08-21 15:13:00,
2013-08-21 11:28:00,76.9,74.0,30.20,NW,313,0.0,3.0,90,0.00,,,0.39,weatherlink.com 1.10,2013-08-21 15:28:00,
2013-08-21 11:43:00,77.2,74.0,30.20,WSW,252,1.0,4.0,89,0.00,,,0.39,weatherlink.com 1.10,2013-08-21 15:43:00,
2013-08-21 11:58:00,77.3,75.0,30.19,WSW,258,0.0,3.0,91,0.00,,,0.39,weatherlink.com 1.10,2013-08-21 15:58:00,
2013-08-21 12:13:00,77.5,75.0,30.19,NW,323,0.0,3.0,92,0.00,,,0.39,weatherlink.com 1.10,2013-08-21 16:13:00,
2013-08-21 12:28:00,77.2,75.0,30.19,WNW,292,0.0,2.0,91,0.00,,,0.39,weatherlink.com 1.10,2013-08-21 16:28:00,
2013-08-21 12:43:00,79.7,76.0,30.18,NW,304,0.0,3.0,87,0.00,,,0.39,weatherlink.com 1.10,2013-08-21 16:43:00,
2013-08-21 12:58:00,78.9,75.0,30.18,NW,318,2.0,4.0,88,0.00,,,0.39,weatherlink.com 1.10,2013-08-21 16:58:00,
2013-08-21 13:13:00,76.8,75.0,30.17,NW,318,0.0,1.0,93,0.00,,,0.39,weatherlink.com 1.10,2013-08-21 17:13:00,
2013-08-21 13:28:00,75.8,74.0,30.17,NW,318,0.0,1.0,95,0.00,,,0.39,weatherlink.com 1.10,2013-08-21 17:28:00,
2013-08-21 13:43:00,74.6,73.0,30.18,ESE,117,3.0,3.0,95,0.58,,,0.97,weatherlink.com 1.10,2013-08-21 17:43:00,
2013-08-21 13:58:00,73.7,72.0,30.17,East,97,1.0,2.0,95,0.70,,,1.09,weatherlink.com 1.10,2013-08-21 17:58:00,
2013-08-21 14:13:00,74.7,73.0,30.17,SSE,159,0.0,1.0,94,0.71,,,1.10,weatherlink.com 1.10,2013-08-21 18:13:00,
2013-08-21 14:28:00,73.6,72.0,30.18,NNW,335,3.0,6.0,95,0.71,,,1.10,weatherlink.com 1.10,2013-08-21 18:28:00,
2013-08-21 14:43:00,72.2,71.0,30.17,NE,34,4.0,8.0,95,0.13,,,1.12,weatherlink.com 1.10,2013-08-21 18:43:00,
2013-08-21 14:58:00,71.1,70.0,30.18,WSW,237,0.0,8.0,96,0.06,,,1.15,weatherlink.com 1.10,2013-08-21 18:58:00,
2013-08-21 15:13:00,70.8,69.0,30.16,NW,309,1.0,2.0,95,0.20,,,1.30,weatherlink.com 1.10,2013-08-21 19:13:00,
2013-08-21 15:28:00,71.7,70.0,30.16,East,82,1.0,4.0,94,0.22,,,1.32,weatherlink.com 1.10,2013-08-21 19:28:00,
2013-08-21 15:43:00,72.8,72.0,30.15,West,275,2.0,4.0,96,0.19,,,1.32,weatherlink.com 1.10,2013-08-21 19:43:00,
2013-08-21 15:58:00,72.1,71.0,30.14,West,275,0.0,1.0,95,0.17,,,1.32,weatherlink.com 1.10,2013-08-21 19:58:00,
2013-08-21 16:13:00,72.4,71.0,30.14,West,279,2.0,3.0,95,0.02,,,1.32,weatherlink.com 1.10,2013-08-21 20:13:00,
2013-08-21 16:28:00,72.2,71.0,30.14,WSW,237,0.0,1.0,95,0.00,,,1.32,weatherlink.com 1.10,2013-08-21 20:28:00,
2013-08-21 16:43:00,72.2,70.0,30.13,West,275,1.0,4.0,94,0.03,,,1.35,weatherlink.com 1.10,2013-08-21 20:43:00,
2013-08-21 16:58:00,73.0,71.0,30.12,NW,316,1.0,3.0,94,0.03,,,1.35,weatherlink.com 1.10,2013-08-21 20:58:00,
2013-08-21 17:13:00,73.8,72.0,30.12,NW,306,4.0,6.0,95,0.03,,,1.35,weatherlink.com 1.10,2013-08-21 21:13:00,
2013-08-21 17:28:00,75.2,74.0,30.12,NW,326,1.0,4.0,95,0.03,,,1.35,weatherlink.com 1.10,2013-08-21 21:28:00,
2013-08-21 17:43:00,75.4,74.0,30.12,West,262,2.0,5.0,94,0.00,,,1.35,weatherlink.com 1.10,2013-08-21 21:43:00,
2013-08-21 17:58:00,75.7,74.0,30.11,West,279,2.0,4.0,95,0.01,,,1.36,weatherlink.com 1.10,2013-08-21 21:58:00,
2013-08-21 18:14:00,77.1,75.0,30.10,NW,318,1.0,4.0,92,0.01,,,1.36,weatherlink.com 1.10,2013-08-21 22:14:00,
2013-08-21 18:29:00,76.9,74.0,30.10,West,271,2.0,6.0,90,0.01,,,1.36,weatherlink.com 1.10,2013-08-21 22:29:00,
2013-08-21 18:44:00,74.9,73.0,30.10,West,265,1.0,1.0,95,0.01,,,1.36,weatherlink.com 1.10,2013-08-21 22:44:00,
2013-08-21 18:59:00,74.6,73.0,30.09,West,265,0.0,1.0,95,0.00,,,1.36,weatherlink.com 1.10,2013-08-21 22:59:00,
2013-08-21 19:14:00,75.8,74.0,30.10,SE,128,0.0,1.0,95,0.00,,,1.36,weatherlink.com 1.10,2013-08-21 23:14:00,
2013-08-21 19:29:00,74.9,73.0,30.10,SSE,148,0.0,1.0,95,0.00,,,1.36,weatherlink.com 1.10,2013-08-21 23:29:00,
2013-08-21 19:44:00,74.1,73.0,30.10,SSE,148,0.0,0.0,95,0.00,,,1.36,weatherlink.com 1.10,2013-08-21 23:44:00,
2013-08-21 19:59:00,73.4,72.0,30.10,SSE,148,0.0,0.0,95,0.00,,,1.36,weatherlink.com 1.10,2013-08-21 23:59:00,
2013-08-21 20:14:00,72.6,71.0,30.10,SSE,148,0.0,0.0,94,0.00,,,1.36,weatherlink.com 1.10,2013-08-22 00:14:00,
2013-08-21 20:29:00,72.0,70.0,30.09,SSE,148,0.0,0.0,94,0.00,,,1.36,weatherlink.com 1.10,2013-08-22 00:29:00,
2013-08-21 20:44:00,71.7,70.0,30.09,SSE,148,0.0,0.0,94,0.00,,,1.36,weatherlink.com 1.10,2013-08-22 00:44:00,
2013-08-21 21:00:00,71.3,70.0,30.09,SSE,148,0.0,1.0,94,0.00,,,1.36,weatherlink.com 1.10,2013-08-22 01:00:00,
2013-08-21 21:14:00,71.5,70.0,30.11,SSE,148,0.0,1.0,94,0.00,,,1.36,weatherlink.com 1.10,2013-08-22 01:14:00,
2013-08-21 21:29:00,71.2,69.0,30.12,SSE,148,0.0,1.0,94,0.00,,,1.36,weatherlink.com 1.10,2013-08-22 01:29:00,
2013-08-21 21:44:00,71.1,69.0,30.13,SSE,148,0.0,0.0,94,0.00,,,1.36,weatherlink.com 1.10,2013-08-22 01:44:00,
2013-08-21 21:59:00,70.8,69.0,30.13,SSE,148,0.0,0.0,94,0.00,,,1.36,weatherlink.com 1.10,2013-08-22 01:59:00,
2013-08-21 22:14:00,70.5,69.0,30.14,SSE,148,0.0,0.0,94,0.00,,,1.36,weatherlink.com 1.10,2013-08-22 02:14:00,
2013-08-21 22:29:00,70.4,69.0,30.15,SSE,148,0.0,0.0,94,0.00,,,1.36,weatherlink.com 1.10,2013-08-22 02:29:00,
2013-08-21 22:44:00,70.1,68.0,30.15,SSE,148,0.0,0.0,94,0.00,,,1.36,weatherlink.com 1.10,2013-08-22 02:44:00,
2013-08-21 22:59:00,70.0,68.0,30.14,SSE,148,0.0,0.0,94,0.00,,,1.36,weatherlink.com 1.10,2013-08-22 02:59:00,
2013-08-21 23:14:00,69.7,68.0,30.14,SSE,148,0.0,0.0,94,0.00,,,1.36,weatherlink.com 1.10,2013-08-22 03:14:00,
2013-08-21 23:29:00,69.8,68.0,30.14,SSE,148,0.0,0.0,94,0.00,,,1.36,weatherlink.com 1.10,2013-08-22 03:29:00,
2013-08-21 23:44:00,70.0,68.0,30.13,SSE,148,0.0,0.0,94,0.00,,,1.36,weatherlink.com 1.10,2013-08-22 03:44:00,
2013-08-21 23:59:00,70.1,68.0,30.13,SSE,148,0.0,0.0,94,0.00,,,1.36,weatherlink.com 1.10,2013-08-22 03:59:00,